• Processing (Info)

  • MPEC 2019-T200 : 2019 TK6

    The following Minor Planet Electronic Circular may be linked-to from your own Web pages, but must not otherwise be redistributed electronically.

    A form allowing access to any MPEC is at the bottom of this page.


    Read MPEC 2019-T199 Read MPEC 2019-T201


    M.P.E.C. 2019-T200                             Issued 2019 October 10, 18:55 UT
    
         The Minor Planet Electronic Circulars contain information on unusual
             minor planets and routine data on comets.  They are published
        on behalf of Division F of the International Astronomical Union by the
              Minor Planet Center, Smithsonian Astrophysical Observatory,
                              Cambridge, MA 02138, U.S.A.
    
                 Prepared using the Tamkin Foundation Computer Network
    
                                  MPC@CFA.HARVARD.EDU
                URL https://www.minorplanetcenter.net/    ISSN 1523-6714
    
                                    2019 TK6                                 
    
    
    Observations:
         K19T06K* C2019 10 08.39453 03 41 59.90 +15 34 22.8          21.4 GVET200G96
         K19T06K  C2019 10 08.39922 03 42 00.37 +15 34 19.5          20.8 GVET200G96
         K19T06K  C2019 10 08.40392 03 42 00.78 +15 34 15.3          21.0 GVET200G96
         K19T06K  C2019 10 08.40861 03 42 01.22 +15 34 12.0          21.9 GVET200G96
         K19T06K  C2019 10 08.46064 03 42 06.29 +15 33 30.1                VET200I52
         K19T06K  C2019 10 08.46179 03 42 06.41 +15 33 29.3          22.3 GVET200I52
         K19T06K  C2019 10 08.46290 03 42 06.56 +15 33 28.2                VET200I52
         K19T06K  C2019 10 08.46402 03 42 06.64 +15 33 27.6                VET200I52
         K19T06K KC2019 10 09.26868103 43 35.30 +15 22 28.1          22.0 VuET200H21
         K19T06K KC2019 10 09.27476703 43 35.91 +15 22 23.0          21.8 VuET200H21
         K19T06K  C2019 10 09.42939 03 43 52.01 +15 20 16.0          21.7 GVET200G96
         K19T06K  C2019 10 09.43084 03 43 52.14 +15 20 14.9          21.5 GVET200G96
         K19T06K  C2019 10 09.45173 03 43 54.17 +15 19 56.6                VET200G96
         K19T06K  C2019 10 09.45318 03 43 54.33 +15 19 55.5          21.3 GVET200G96
         K19T06K  C2019 10 09.46100403 43 56.569+15 19 53.90         21.9 GVET200F51
         K19T06K  C2019 10 09.47238903 43 57.703+15 19 44.62         21.3 GVET200F51
         K19T06K  C2019 10 09.48378503 43 58.823+15 19 35.16         21.8 GVET200F51
         K19T06K  C2019 10 09.49530703 43 59.949+15 19 25.32         22.1 GVET200F51
         K19T06K  C2019 10 10.29575 03 45 29.44 +15 07 30.8          21.3 GVET200G96
         K19T06K  C2019 10 10.29720 03 45 29.62 +15 07 29.3          21.8 GVET200G96
         K19T06K  C2019 10 10.29949 03 45 29.80 +15 07 27.2          21.6 GVET200G96
         K19T06K  C2019 10 10.30179 03 45 30.06 +15 07 25.6          21.5 GVET200G96
    
    Observer details:
    F51 Pan-STARRS 1, Haleakala.  Observers J. Bulger, K. Chambers, T. Lowe, E. 
       Magnier, A. Schultz, M. Willman.  Measurers S. Chastel, M. Huber, Y. 
       Ramanjooloo, R. Wainscoat, R. Weryk.  1.8-m Ritchey-Chretien + CCD.
    G96 Mt. Lemmon Survey.  Observer G. J. Leonard.  Measurers E. J. Christensen, 
       G. A. Farneth, D. C. Fuls, A. R. Gibbs, A. D. Grauer, H. Groeller, R. A. 
       Kowalski, S. M. Larson, G. J. Leonard, T. A. Pruyne, D. Rankin, R. L. Seaman,
        F. C. Shelly, K. W. Wierzchos.  1.5-m reflector + 10K CCD.
    H21 Astronomical Research Observatory, Westfield.  Observer R. Holmes.  
        Measurers S. Foglia, L. Buzzi, T. Linder, R. Holmes.  1.3-m f/4.0 
       astrograph + CCD.
    I52 Steward Observatory, Mt. Lemmon Station.  Observer T. A. Pruyne.  Measurers 
       E. J. Christensen, G. A. Farneth, D. C. Fuls, A. R. Gibbs, A. D. Grauer, H. 
       Groeller, R. A. Kowalski, S. M. Larson, G. J. Leonard, T. A. Pruyne, D. 
       Rankin, R. L. Seaman, F. C. Shelly, K. W. Wierzchos.  1.0-m reflector + CCD.
    
    Orbital elements:
    2019 TK6                                                 Earth MOID = 0.0509 AU
    Epoch 2019 Apr. 27.0 TT = JDT 2458600.5                 Bell
    M 159.71889              (2000.0)            P               Q
    n   0.77488641     Peri.  313.76683     -0.82654458     -0.56261458
    a   1.1739349      Node   192.02964     +0.53701614     -0.77917138
    e   0.4292526      Incl.    4.67775     +0.16863489     -0.27632734
    P   1.27           H   22.8           G   0.15           U   9
    Residuals in seconds of arc
    191008 G96  0.1+  0.1+    191009 H21  0.4-  0.4+    191009 F51  0.1+  0.1+
    191008 G96  0.3+  0.4+    191009 H21  0.4-  0.3+    191009 F51  0.0   0.0
    191008 G96  0.3-  0.1-    191009 G96  0.3+  0.1+    191010 G96  0.1-  0.0
    191008 G96  0.5-  0.3+    191009 G96  0.1+  0.3+    191010 G96  0.4+  0.2-
    191008 I52  0.2-  0.3-    191009 G96  0.4-  0.1-    191010 G96  0.4-  0.3-
    191008 I52  0.1-  0.2-    191009 G96  0.2-  0.1+    191010 G96  0.1-  0.2+
    191008 I52  0.5+  0.4-    191009 F51  0.0   0.2-
    191008 I52  0.1+  0.1-    191009 F51  0.1+  0.0
    
    Ephemeris:
    2019 TK6                 a,e,i = 1.17, 0.43, 5                   q = 0.6700
    Date    TT    R. A. (2000) Decl.     Delta      r    Elong.  Phase     V
    2019 09 10    02 56 20.2 +17 32 32   0.5935  1.4014   120.0    38.5    23.9
    ...
    2019 09 25    03 19 50.2 +17 19 24   0.4320  1.3197   129.3    36.1    23.1
    ...
    2019 10 03    03 32 43.4 +16 31 54   0.3519  1.2718   134.3    34.3    22.5
    ...
    2019 10 09    03 43 05.1 +15 26 25   0.2950  1.2339   137.9    32.9    22.0
    2019 10 10    03 44 55.1 +15 12 09   0.2858  1.2275   138.5    32.6    21.9
    2019 10 11    03 46 47.6 +14 56 43   0.2766  1.2210   139.0    32.4    21.8
    ...
    2019 10 17    03 59 14.3 +12 53 59   0.2235  1.1810   142.0    31.3    21.2
    ...
    2019 10 25    04 21 49.0 +07 57 37   0.1576  1.1256   143.8    31.5    20.4
    ...
    2019 11 09    06 34 48.6 -25 58 36   0.06452 1.0161   111.5    65.1    19.2
    
    A. U. Tomatic                (C) Copyright 2019 MPC           M.P.E.C. 2019-T200
    


    Read MPEC 2019-T199 Read MPEC 2019-T201


    MPEC number:

    Enter an MPEC number in one of the following forms:

    • 1997-B01 (the full form)
    • J97B01 (the packed version of the full form)
    • B01 (the abbreviated form)